Time,TemperatureF,DewpointF,PressureIn,WindDirection,WindDirectionDegrees,WindSpeedMPH,WindSpeedGustMPH,Humidity,HourlyPrecipIn,Conditions,Clouds,dailyrainin,SoftwareType,DateUTC
2013-03-21 00:08:00,4.1,-16.8,30.12,NW,316,2.0,3.6,36,0.00,,,-99.99,FreeWX-Wi 1.01,2013-03-21 05:08:00,
2013-03-21 00:18:00,3.9,-17.0,30.12,NW,315,2.0,4.0,36,0.00,,,-99.99,FreeWX-Wi 1.01,2013-03-21 05:18:00,
2013-03-21 00:28:00,3.6,-17.3,30.12,NW,314,1.0,4.0,36,0.00,,,-99.99,FreeWX-Wi 1.01,2013-03-21 05:28:00,
2013-03-21 00:38:00,3.4,-17.5,30.09,NW,324,2.0,5.8,36,0.00,,,-99.99,FreeWX-Wi 1.01,2013-03-21 05:38:00,
2013-03-21 00:48:00,3.9,-17.0,30.09,NNW,340,3.0,6.3,36,0.00,,,-99.99,FreeWX-Wi 1.01,2013-03-21 05:48:00,
2013-03-21 00:58:00,4.8,-16.2,30.09,North,354,4.0,7.2,36,0.00,,,-99.99,FreeWX-Wi 1.01,2013-03-21 05:58:00,
2013-03-21 01:08:00,4.8,-16.2,30.09,North,357,4.0,6.3,36,0.00,,,-99.99,FreeWX-Wi 1.01,2013-03-21 06:08:00,
2013-03-21 01:18:00,4.8,-16.2,30.09,North,356,4.0,7.6,36,0.00,,,-99.99,FreeWX-Wi 1.01,2013-03-21 06:18:00,
2013-03-21 01:28:00,4.6,-16.4,30.09,North,358,4.0,6.3,36,0.00,,,-99.99,FreeWX-Wi 1.01,2013-03-21 06:28:00,
2013-03-21 01:38:00,4.5,-16.6,30.09,North,0,4.0,6.3,36,0.00,,,-99.99,FreeWX-Wi 1.01,2013-03-21 06:38:00,
2013-03-21 01:48:00,4.3,-16.8,30.09,North,359,4.0,6.3,36,0.00,,,-99.99,FreeWX-Wi 1.01,2013-03-21 06:48:00,
2013-03-21 01:58:00,3.6,-17.3,30.09,North,3,2.0,2.7,36,0.00,,,-99.99,FreeWX-Wi 1.01,2013-03-21 06:58:00,
2013-03-21 02:08:00,2.7,-18.2,30.09,North,6,1.0,2.7,36,0.00,,,-99.99,FreeWX-Wi 1.01,2013-03-21 07:08:00,
2013-03-21 02:18:00,1.6,-19.1,30.09,North,-999,0.0,2.7,36,0.00,,,-99.99,FreeWX-Wi 1.01,2013-03-21 07:18:00,
2013-03-21 02:28:00,0.9,-19.8,30.09,NNE,12,1.0,3.1,36,0.00,,,-99.99,FreeWX-Wi 1.01,2013-03-21 07:28:00,
2013-03-21 02:38:00,0.3,-20.2,30.09,NNE,12,1.0,2.7,36,0.00,,,-99.99,FreeWX-Wi 1.01,2013-03-21 07:38:00,
2013-03-21 02:48:00,0.0,-20.6,30.09,NNE,12,1.0,2.2,36,0.00,,,-99.99,FreeWX-Wi 1.01,2013-03-21 07:48:00,
2013-03-21 02:58:00,-0.6,-21.1,30.09,NNE,12,1.0,2.7,36,0.00,,,-99.99,FreeWX-Wi 1.01,2013-03-21 07:58:00,
2013-03-21 03:08:00,-0.9,-21.5,30.09,NNE,12,1.0,2.7,36,0.00,,,-99.99,FreeWX-Wi 1.01,2013-03-21 08:08:00,
2013-03-21 03:18:00,-1.3,-21.6,30.09,NNE,12,1.0,3.1,36,0.00,,,-99.99,FreeWX-Wi 1.01,2013-03-21 08:18:00,
2013-03-21 03:28:00,-1.5,-21.8,30.09,North,-999,0.0,2.7,36,0.00,,,-99.99,FreeWX-Wi 1.01,2013-03-21 08:28:00,
2013-03-21 03:38:00,-1.8,-22.2,30.09,North,-999,0.0,2.7,36,0.00,,,-99.99,FreeWX-Wi 1.01,2013-03-21 08:38:00,
2013-03-21 03:48:00,-1.8,-22.2,30.09,North,-999,0.0,4.0,36,0.00,,,-99.99,FreeWX-Wi 1.01,2013-03-21 08:48:00,
2013-03-21 03:58:00,-1.3,-21.6,30.09,North,2,1.0,4.0,36,0.00,,,-99.99,FreeWX-Wi 1.01,2013-03-21 08:58:00,
2013-03-21 04:08:00,-1.5,-21.8,30.09,North,1,1.0,3.1,36,0.00,,,-99.99,FreeWX-Wi 1.01,2013-03-21 09:08:00,
2013-03-21 04:18:00,-1.8,-22.2,30.09,North,-999,0.0,0.0,36,0.00,,,-99.99,FreeWX-Wi 1.01,2013-03-21 09:18:00,
2013-03-21 04:28:00,-2.2,-22.5,30.09,North,-999,0.0,2.2,36,0.00,,,-99.99,FreeWX-Wi 1.01,2013-03-21 09:28:00,
2013-03-21 04:38:00,-2.0,-22.4,30.09,North,-999,0.0,2.7,36,0.00,,,-99.99,FreeWX-Wi 1.01,2013-03-21 09:38:00,
2013-03-21 04:48:00,-1.8,-22.2,30.06,North,-999,0.0,3.1,36,0.00,,,-99.99,FreeWX-Wi 1.01,2013-03-21 09:48:00,
2013-03-21 04:58:00,-1.1,-21.5,30.06,North,4,1.0,4.0,36,0.00,,,-99.99,FreeWX-Wi 1.01,2013-03-21 09:58:00,
2013-03-21 05:08:00,0.1,-20.4,30.06,NNE,18,2.0,4.9,36,0.00,,,-99.99,FreeWX-Wi 1.01,2013-03-21 10:08:00,
2013-03-21 05:18:00,-1.1,-21.5,30.06,NNE,20,2.0,4.9,36,0.00,,,-99.99,FreeWX-Wi 1.01,2013-03-21 10:18:00,
2013-03-21 05:28:00,-1.5,-21.8,30.06,NW,326,1.0,2.7,36,0.00,,,-99.99,FreeWX-Wi 1.01,2013-03-21 10:28:00,
2013-03-21 05:38:00,-1.8,-22.2,30.06,West,274,1.0,3.6,36,0.00,,,-99.99,FreeWX-Wi 1.01,2013-03-21 10:38:00,
2013-03-21 05:48:00,-2.2,-22.5,30.06,West,270,1.0,3.1,36,0.00,,,-99.99,FreeWX-Wi 1.01,2013-03-21 10:48:00,
2013-03-21 05:58:00,-2.4,-22.7,30.06,West,270,1.0,3.1,36,0.00,,,-99.99,FreeWX-Wi 1.01,2013-03-21 10:58:00,
2013-03-21 06:08:00,-2.6,-22.9,30.06,North,-999,0.0,0.0,36,0.00,,,-99.99,FreeWX-Wi 1.01,2013-03-21 11:08:00,
2013-03-21 06:18:00,-2.9,-23.1,30.06,North,-999,0.0,0.0,36,0.00,,,-99.99,FreeWX-Wi 1.01,2013-03-21 11:18:00,
2013-03-21 06:28:00,-2.9,-23.1,30.06,North,-999,0.0,2.7,36,0.00,,,-99.99,FreeWX-Wi 1.01,2013-03-21 11:28:00,
2013-03-21 06:38:00,-3.1,-23.3,30.06,North,-999,0.0,2.2,36,0.00,,,-99.99,FreeWX-Wi 1.01,2013-03-21 11:38:00,
2013-03-21 06:48:00,-3.5,-23.6,30.06,North,-999,0.0,3.1,36,0.00,,,-99.99,FreeWX-Wi 1.01,2013-03-21 11:48:00,
2013-03-21 06:58:00,-3.8,-24.0,30.06,North,-999,0.0,2.7,36,0.00,,,-99.99,FreeWX-Wi 1.01,2013-03-21 11:58:00,
2013-03-21 07:08:00,-4.4,-24.5,30.06,North,-999,0.0,0.0,36,0.00,,,-99.99,FreeWX-Wi 1.01,2013-03-21 12:08:00,
2013-03-21 07:18:00,-4.7,-24.7,30.06,North,-999,0.0,0.0,36,0.00,,,-99.99,FreeWX-Wi 1.01,2013-03-21 12:18:00,
2013-03-21 07:28:00,-4.4,-24.5,30.06,North,-999,0.0,0.0,36,0.00,,,-99.99,FreeWX-Wi 1.01,2013-03-21 12:28:00,
2013-03-21 07:38:00,-4.5,-24.7,30.06,North,-999,0.0,2.7,36,0.00,,,-99.99,FreeWX-Wi 1.01,2013-03-21 12:38:00,
2013-03-21 07:48:00,-4.4,-24.5,30.06,North,-999,0.0,2.2,36,0.00,,,-99.99,FreeWX-Wi 1.01,2013-03-21 12:48:00,
2013-03-21 07:58:00,-3.8,-24.0,30.09,North,-999,0.0,2.7,36,0.00,,,-99.99,FreeWX-Wi 1.01,2013-03-21 12:58:00,
2013-03-21 08:08:00,-3.5,-23.6,30.09,North,-999,0.0,2.2,36,0.00,,,-99.99,FreeWX-Wi 1.01,2013-03-21 13:08:00,
2013-03-21 08:18:00,-2.6,-22.9,30.09,North,-999,0.0,2.7,36,0.00,,,-99.99,FreeWX-Wi 1.01,2013-03-21 13:18:00,
2013-03-21 08:28:00,-0.9,-21.5,30.09,North,-999,0.0,3.1,36,0.00,,,-99.99,FreeWX-Wi 1.01,2013-03-21 13:28:00,
2013-03-21 08:38:00,0.3,-20.2,30.09,NNW,337,1.0,4.0,36,0.00,,,-99.99,FreeWX-Wi 1.01,2013-03-21 13:38:00,
2013-03-21 08:49:00,1.2,-19.5,30.09,NW,313,2.0,4.5,36,0.00,,,-99.99,FreeWX-Wi 1.01,2013-03-21 13:49:00,
2013-03-21 08:59:00,1.9,-18.8,30.09,WNW,285,2.0,3.1,36,0.00,,,-99.99,FreeWX-Wi 1.01,2013-03-21 13:59:00,
2013-03-21 09:09:00,3.2,-17.7,30.09,West,275,2.0,3.6,36,0.00,,,-99.99,FreeWX-Wi 1.01,2013-03-21 14:09:00,
2013-03-21 09:19:00,5.0,-16.1,30.09,West,276,1.0,2.7,36,0.00,,,-99.99,FreeWX-Wi 1.01,2013-03-21 14:19:00,
2013-03-21 09:29:00,6.3,-15.0,30.09,NW,313,1.0,4.0,36,0.00,,,-99.99,FreeWX-Wi 1.01,2013-03-21 14:29:00,
2013-03-21 09:39:00,7.7,-13.5,30.09,NNE,26,2.0,4.0,36,0.00,,,-99.99,FreeWX-Wi 1.01,2013-03-21 14:39:00,
2013-03-21 09:49:00,9.0,-12.5,30.09,ENE,68,2.0,3.6,36,0.00,,,-99.99,FreeWX-Wi 1.01,2013-03-21 14:49:00,
2013-03-21 09:59:00,10.0,-11.6,30.09,East,87,2.0,3.1,36,0.00,,,-99.99,FreeWX-Wi 1.01,2013-03-21 14:59:00,
2013-03-21 10:09:00,11.3,-10.5,30.09,East,89,1.0,3.1,36,0.00,,,-99.99,FreeWX-Wi 1.01,2013-03-21 15:09:00,
2013-03-21 10:19:00,11.3,-10.5,30.09,East,98,2.0,6.3,36,0.00,,,-99.99,FreeWX-Wi 1.01,2013-03-21 15:19:00,
2013-03-21 10:29:00,11.3,-10.5,30.09,WSW,255,3.0,6.3,36,0.00,,,-99.99,FreeWX-Wi 1.01,2013-03-21 15:29:00,
2013-03-21 10:39:00,11.1,-10.5,30.09,West,262,4.0,5.4,36,0.00,,,-99.99,FreeWX-Wi 1.01,2013-03-21 15:39:00,
2013-03-21 10:49:00,11.8,-9.9,30.09,West,261,3.0,4.0,36,0.00,,,-99.99,FreeWX-Wi 1.01,2013-03-21 15:49:00,
2013-03-21 10:59:00,12.7,-9.0,30.09,West,260,2.0,3.1,36,0.00,,,-99.99,FreeWX-Wi 1.01,2013-03-21 15:59:00,
2013-03-21 11:09:00,14.7,-3.6,30.09,WSW,240,2.0,4.0,43,0.00,,,-99.99,FreeWX-Wi 1.01,2013-03-21 16:09:00,
2013-03-21 11:19:00,17.1,-1.5,30.09,SSE,164,2.0,3.6,43,0.00,,,-99.99,FreeWX-Wi 1.01,2013-03-21 16:19:00,
2013-03-21 11:29:00,18.3,-1.5,30.09,ESE,116,2.0,4.0,41,0.00,,,-99.99,FreeWX-Wi 1.01,2013-03-21 16:29:00,
2013-03-21 11:39:00,17.1,-4.7,30.09,ESE,117,2.0,5.4,37,0.00,,,-99.99,FreeWX-Wi 1.01,2013-03-21 16:39:00,
2013-03-21 11:49:00,16.3,-4.7,30.09,SSE,166,2.0,5.8,38,0.00,,,-99.99,FreeWX-Wi 1.01,2013-03-21 16:49:00,
2013-03-21 11:59:00,16.5,-4.5,30.06,SW,229,3.0,5.8,38,0.00,,,-99.99,FreeWX-Wi 1.01,2013-03-21 16:59:00,
2013-03-21 12:09:00,16.7,-4.4,30.06,WSW,246,3.0,4.0,38,0.00,,,-99.99,FreeWX-Wi 1.01,2013-03-21 17:09:00,
2013-03-21 12:19:00,17.4,-3.3,30.06,WSW,253,3.0,3.6,39,0.00,,,-99.99,FreeWX-Wi 1.01,2013-03-21 17:19:00,
2013-03-21 12:29:00,17.8,-2.9,30.06,WSW,251,2.0,4.9,39,0.00,,,-99.99,FreeWX-Wi 1.01,2013-03-21 17:29:00,
2013-03-21 12:39:00,18.1,-2.0,30.06,WSW,250,3.0,6.3,40,0.00,,,-99.99,FreeWX-Wi 1.01,2013-03-21 17:39:00,
2013-03-21 12:49:00,19.0,-1.8,30.06,WSW,253,3.0,5.4,39,0.00,,,-99.99,FreeWX-Wi 1.01,2013-03-21 17:49:00,
2013-03-21 12:59:00,19.8,-2.2,30.06,West,259,4.0,5.4,37,0.00,,,-99.99,FreeWX-Wi 1.01,2013-03-21 17:59:00,
2013-03-21 13:09:00,20.1,-1.8,30.06,West,259,3.0,5.8,37,0.00,,,-99.99,FreeWX-Wi 1.01,2013-03-21 18:09:00,
2013-03-21 13:19:00,20.3,-1.8,30.06,WSW,256,3.0,5.4,37,0.00,,,-99.99,FreeWX-Wi 1.01,2013-03-21 18:19:00,
2013-03-21 13:29:00,20.7,-1.5,30.06,WSW,255,3.0,5.8,37,0.00,,,-99.99,FreeWX-Wi 1.01,2013-03-21 18:29:00,
2013-03-21 13:39:00,20.7,-1.5,30.06,WSW,257,3.0,5.8,37,0.00,,,-99.99,FreeWX-Wi 1.01,2013-03-21 18:39:00,
2013-03-21 13:49:00,20.7,-2.0,30.06,West,262,4.0,7.6,36,0.00,,,-99.99,FreeWX-Wi 1.01,2013-03-21 18:49:00,
2013-03-21 13:59:00,21.2,-1.5,30.06,West,261,4.0,6.3,36,0.00,,,-99.99,FreeWX-Wi 1.01,2013-03-21 18:59:00,
2013-03-21 14:09:00,21.9,-0.9,30.06,West,262,4.0,5.8,36,0.00,,,-99.99,FreeWX-Wi 1.01,2013-03-21 19:09:00,
2013-03-21 14:19:00,22.6,-0.8,30.06,West,268,4.0,5.8,35,0.00,,,-99.99,FreeWX-Wi 1.01,2013-03-21 19:19:00,
2013-03-21 14:29:00,22.5,-1.7,30.06,West,271,4.0,6.3,34,0.00,,,-99.99,FreeWX-Wi 1.01,2013-03-21 19:29:00,
2013-03-21 14:39:00,23.0,-0.6,30.06,West,271,4.0,5.8,35,0.00,,,-99.99,FreeWX-Wi 1.01,2013-03-21 19:39:00,
2013-03-21 14:49:00,24.4,0.1,30.06,West,272,4.0,5.8,34,0.00,,,-99.99,FreeWX-Wi 1.01,2013-03-21 19:49:00,
2013-03-21 14:59:00,24.3,0.0,30.03,WNW,298,3.0,5.4,34,0.00,,,-99.99,FreeWX-Wi 1.01,2013-03-21 19:59:00,
2013-03-21 15:09:00,26.2,1.8,30.03,NW,304,3.0,7.2,34,0.00,,,-99.99,FreeWX-Wi 1.01,2013-03-21 20:09:00,
2013-03-21 15:19:00,26.4,1.9,30.03,NW,317,3.0,5.8,34,0.00,,,-99.99,FreeWX-Wi 1.01,2013-03-21 20:19:00,
2013-03-21 15:29:00,27.5,2.3,30.03,WNW,302,3.0,5.8,33,0.00,,,-99.99,FreeWX-Wi 1.01,2013-03-21 20:29:00,
2013-03-21 15:39:00,27.3,2.1,30.03,NW,318,3.0,5.4,33,0.00,,,-99.99,FreeWX-Wi 1.01,2013-03-21 20:39:00,
2013-03-21 15:49:00,27.3,2.1,30.03,NW,324,3.0,5.8,33,0.00,,,-99.99,FreeWX-Wi 1.01,2013-03-21 20:49:00,
2013-03-21 15:59:00,27.7,2.3,30.03,NNW,336,3.0,4.9,33,0.00,,,-99.99,FreeWX-Wi 1.01,2013-03-21 20:59:00,
2013-03-21 16:09:00,28.0,2.7,30.03,NW,314,3.0,5.4,33,0.00,,,-99.99,FreeWX-Wi 1.01,2013-03-21 21:09:00,
2013-03-21 16:19:00,28.4,3.0,30.03,NNW,332,3.0,6.3,33,0.00,,,-99.99,FreeWX-Wi 1.01,2013-03-21 21:19:00,
2013-03-21 16:29:00,27.9,1.9,30.03,NW,316,3.0,6.3,32,0.00,,,-99.99,FreeWX-Wi 1.01,2013-03-21 21:29:00,
2013-03-21 16:39:00,27.3,1.4,30.03,NNW,336,3.0,5.4,32,0.00,,,-99.99,FreeWX-Wi 1.01,2013-03-21 21:39:00,
2013-03-21 16:49:00,27.9,1.9,30.03,NNW,331,3.0,4.9,32,0.00,,,-99.99,FreeWX-Wi 1.01,2013-03-21 21:49:00,
2013-03-21 16:59:00,27.1,1.2,30.03,North,354,3.0,6.3,32,0.00,,,-99.99,FreeWX-Wi 1.01,2013-03-21 21:59:00,
2013-03-21 17:09:00,26.6,0.7,30.03,North,354,3.0,5.8,32,0.00,,,-99.99,FreeWX-Wi 1.01,2013-03-21 22:09:00,
2013-03-21 17:19:00,25.7,0.0,30.03,North,357,3.0,6.3,32,0.00,,,-99.99,FreeWX-Wi 1.01,2013-03-21 22:19:00,
2013-03-21 17:29:00,27.0,1.0,30.03,North,2,3.0,4.0,32,0.00,,,-99.99,FreeWX-Wi 1.01,2013-03-21 22:29:00,
2013-03-21 17:39:00,27.5,1.6,30.03,NNW,348,2.0,4.0,32,0.00,,,-99.99,FreeWX-Wi 1.01,2013-03-21 22:39:00,
2013-03-21 17:49:00,27.1,1.2,30.03,NNW,341,2.0,4.9,32,0.00,,,-99.99,FreeWX-Wi 1.01,2013-03-21 22:49:00,
2013-03-21 17:59:00,27.0,1.0,30.03,NNW,331,2.0,5.4,32,0.00,,,-99.99,FreeWX-Wi 1.01,2013-03-21 22:59:00,
2013-03-21 18:09:00,26.8,0.9,30.03,NNW,336,2.0,4.5,32,0.00,,,-99.99,FreeWX-Wi 1.01,2013-03-21 23:09:00,
2013-03-21 18:19:00,26.6,1.4,30.03,NNW,340,2.0,4.0,33,0.00,,,-99.99,FreeWX-Wi 1.01,2013-03-21 23:19:00,
2013-03-21 18:29:00,26.6,1.4,30.03,NNW,334,2.0,4.0,33,0.00,,,-99.99,FreeWX-Wi 1.01,2013-03-21 23:29:00,
2013-03-21 18:39:00,26.2,1.0,30.03,NW,304,2.0,4.0,33,0.00,,,-99.99,FreeWX-Wi 1.01,2013-03-21 23:39:00,
2013-03-21 18:49:00,25.9,0.9,30.03,WNW,293,2.0,3.6,33,0.00,,,-99.99,FreeWX-Wi 1.01,2013-03-21 23:49:00,
2013-03-21 18:59:00,24.8,-0.2,30.03,WNW,287,1.0,3.1,33,0.00,,,-99.99,FreeWX-Wi 1.01,2013-03-21 23:59:00,
2013-03-21 19:09:00,23.4,-1.5,30.03,North,-999,0.0,0.0,33,0.00,,,-99.99,FreeWX-Wi 1.01,2013-03-22 00:09:00,
2013-03-21 19:19:00,21.4,-2.6,30.03,North,-999,0.0,2.2,34,0.00,,,-99.99,FreeWX-Wi 1.01,2013-03-22 00:19:00,
2013-03-21 19:29:00,20.3,-3.5,30.03,North,-999,0.0,0.0,34,0.00,,,-99.99,FreeWX-Wi 1.01,2013-03-22 00:29:00,
2013-03-21 19:39:00,18.9,-4.2,30.03,North,-999,0.0,0.0,35,0.00,,,-99.99,FreeWX-Wi 1.01,2013-03-22 00:39:00,
2013-03-21 19:49:00,17.6,-5.3,30.03,North,-999,0.0,0.0,35,0.00,,,-99.99,FreeWX-Wi 1.01,2013-03-22 00:49:00,
2013-03-21 19:59:00,16.2,-6.7,30.03,North,-999,0.0,0.0,35,0.00,,,-99.99,FreeWX-Wi 1.01,2013-03-22 00:59:00,
2013-03-21 20:09:00,15.3,-6.9,30.03,North,-999,0.0,0.0,36,0.00,,,-99.99,FreeWX-Wi 1.01,2013-03-22 01:09:00,
2013-03-21 20:19:00,14.2,-7.8,30.03,North,-999,0.0,0.0,36,0.00,,,-99.99,FreeWX-Wi 1.01,2013-03-22 01:19:00,
2013-03-21 20:29:00,13.5,-8.0,30.03,North,-999,0.0,0.0,37,0.00,,,-99.99,FreeWX-Wi 1.01,2013-03-22 01:29:00,
2013-03-21 20:39:00,12.7,-8.5,30.03,North,-999,0.0,0.0,37,0.00,,,-99.99,FreeWX-Wi 1.01,2013-03-22 01:39:00,
2013-03-21 20:49:00,12.0,-9.2,30.03,North,-999,0.0,0.0,37,0.00,,,-99.99,FreeWX-Wi 1.01,2013-03-22 01:49:00,
2013-03-21 20:59:00,11.5,-9.8,30.03,North,-999,0.0,0.0,37,0.00,,,-99.99,FreeWX-Wi 1.01,2013-03-22 01:59:00,
2013-03-21 21:09:00,11.5,-9.8,30.03,North,-999,0.0,0.0,37,0.00,,,-99.99,FreeWX-Wi 1.01,2013-03-22 02:09:00,
2013-03-21 21:19:00,11.7,-9.6,30.03,North,-999,0.0,0.0,37,0.00,,,-99.99,FreeWX-Wi 1.01,2013-03-22 02:19:00,
2013-03-21 21:30:00,11.3,-9.8,30.03,North,-999,0.0,0.0,37,0.00,,,-99.99,FreeWX-Wi 1.01,2013-03-22 02:30:00,
2013-03-21 21:40:00,10.9,-10.1,30.03,North,-999,0.0,0.0,37,0.00,,,-99.99,FreeWX-Wi 1.01,2013-03-22 02:40:00,
2013-03-21 21:50:00,10.4,-10.7,30.03,North,-999,0.0,2.2,37,0.00,,,-99.99,FreeWX-Wi 1.01,2013-03-22 02:50:00,
2013-03-21 22:00:00,9.5,-11.4,30.06,North,-999,0.0,3.1,37,0.00,,,-99.99,FreeWX-Wi 1.01,2013-03-22 03:00:00,
2013-03-21 22:10:00,9.0,-11.9,30.06,WNW,287,1.0,3.1,37,0.00,,,-99.99,FreeWX-Wi 1.01,2013-03-22 03:10:00,
2013-03-21 22:20:00,8.8,-12.1,30.06,WNW,287,1.0,2.7,37,0.00,,,-99.99,FreeWX-Wi 1.01,2013-03-22 03:20:00,
2013-03-21 22:30:00,8.6,-12.3,30.06,North,-999,0.0,2.2,37,0.00,,,-99.99,FreeWX-Wi 1.01,2013-03-22 03:30:00,
2013-03-21 22:40:00,8.4,-12.5,30.06,North,-999,0.0,2.7,37,0.00,,,-99.99,FreeWX-Wi 1.01,2013-03-22 03:40:00,
2013-03-21 22:50:00,8.1,-12.8,30.06,North,-999,0.0,2.2,37,0.00,,,-99.99,FreeWX-Wi 1.01,2013-03-22 03:50:00,
2013-03-21 23:00:00,7.9,-13.0,30.06,North,-999,0.0,2.7,37,0.00,,,-99.99,FreeWX-Wi 1.01,2013-03-22 04:00:00,
2013-03-21 23:10:00,8.1,-12.8,30.06,North,-999,0.0,3.1,37,0.00,,,-99.99,FreeWX-Wi 1.01,2013-03-22 04:10:00,
2013-03-21 23:20:00,8.1,-12.8,30.06,WNW,287,1.0,3.1,37,0.00,,,-99.99,FreeWX-Wi 1.01,2013-03-22 04:20:00,
2013-03-21 23:30:00,8.4,-12.5,30.06,WNW,287,2.0,3.6,37,0.00,,,-99.99,FreeWX-Wi 1.01,2013-03-22 04:30:00,
2013-03-21 23:40:00,8.6,-12.3,30.06,WNW,287,2.0,3.6,37,0.00,,,-99.99,FreeWX-Wi 1.01,2013-03-22 04:40:00,
2013-03-21 23:50:00,8.6,-12.3,30.06,WNW,287,2.0,3.1,37,0.00,,,-99.99,FreeWX-Wi 1.01,2013-03-22 04:50:00,